Total_Precipitation_Accumulation
0.52 0.69 1.03 1.37 1.72 2.06 2.15 1.93 1.61 1.41 1.32 1.34 1.35 1.48 1.65 1.79 1.94 2.01 1.98 1.98 1.97 1.88 1.82 1.79 1.73 1.61 1.53 1.42 1.27 1.11 0.98 0.86 0.71 0.60 0.50 0.39 0.31 0.28 0.26 0.24 0.21 0.21 0.22
0.56 0.73 1.10 1.44 1.81 2.06 2.01 2.04 2.01 1.94 1.79 1.89 2.08 2.33 2.54 2.62 2.77 2.98 3.10 3.07 2.90 2.66 2.48 2.29 2.02 1.77 1.62 1.50 1.34 1.15 1.00 0.86 0.71 0.61 0.55 0.43 0.31 0.23 0.17 0.17 0.17 0.16 0.17
0.69 0.84 1.17 1.42 1.66 1.98 2.09 2.16 2.35 2.35 2.24 2.51 2.88 3.22 3.46 3.52 3.58 3.61 3.64 3.52 3.21 2.94 2.69 2.36 2.07 1.88 1.73 1.56 1.40 1.19 1.04 0.85 0.65 0.52 0.50 0.46 0.37 0.25 0.15 0.10 0.08 0.08 0.08
0.50 0.71 1.00 1.36 1.47 1.73 1.91 1.99 2.24 2.50 2.74 3.03 3.41 3.84 4.11 4.24 4.19 3.92 3.64 3.28 2.94 2.62 2.29 2.08 1.94 1.79 1.63 1.48 1.26 1.01 0.83 0.69 0.56 0.47 0.41 0.36 0.30 0.26 0.19 0.12 0.08 0.07 0.07
0.37 0.53 0.69 0.96 1.25 1.49 1.67 1.82 2.01 2.37 2.92 3.51 3.96 4.33 4.57 4.46 4.08 3.65 3.12 2.74 2.43 2.15 1.90 1.72 1.63 1.54 1.34 1.11 0.86 0.66 0.55 0.46 0.39 0.32 0.28 0.26 0.22 0.19 0.20 0.17 0.11 0.08 0.07
0.31 0.38 0.49 0.69 0.93 1.13 1.36 1.63 1.90 2.21 2.73 3.27 3.79 4.13 4.29 4.16 3.75 3.17 2.65 2.30 1.99 1.72 1.48 1.22 1.04 0.89 0.73 0.55 0.43 0.36 0.32 0.29 0.25 0.20 0.18 0.17 0.17 0.16 0.16 0.16 0.11 0.08 0.06
0.33 0.39 0.46 0.55 0.68 0.83 1.05 1.31 1.59 1.97 2.30 2.69 3.15 3.23 3.16 2.94 2.56 2.30 2.08 1.75 1.41 1.16 0.95 0.75 0.61 0.48 0.38 0.32 0.28 0.24 0.21 0.17 0.15 0.14 0.13 0.11 0.10 0.10 0.11 0.13 0.11 0.09 0.05
0.33 0.40 0.47 0.57 0.72 0.84 0.98 1.13 1.35 1.63 1.85 1.98 2.09 2.06 1.86 1.70 1.56 1.41 1.19 0.97 0.78 0.64 0.52 0.42 0.34 0.27 0.22 0.17 0.13 0.11 0.09 0.09 0.09 0.08 0.09 0.09 0.08 0.09 0.11 0.14 0.17 0.16 0.10
0.40 0.46 0.51 0.58 0.70 0.76 0.86 0.88 0.91 1.04 1.10 1.12 1.12 1.14 1.12 1.02 0.91 0.77 0.63 0.53 0.43 0.34 0.27 0.21 0.17 0.12 0.10 0.09 0.08 0.07 0.07 0.08 0.09 0.09 0.09 0.09 0.09 0.10 0.11 0.12 0.16 0.21 0.20
0.47 0.50 0.52 0.53 0.53 0.54 0.56 0.59 0.59 0.61 0.62 0.64 0.61 0.61 0.62 0.59 0.50 0.43 0.37 0.29 0.23 0.17 0.14 0.12 0.10 0.09 0.08 0.07 0.07 0.08 0.08 0.09 0.09 0.10 0.11 0.10 0.10 0.10 0.10 0.10 0.13 0.19 0.27
0.50 0.49 0.46 0.42 0.39 0.38 0.38 0.39 0.41 0.43 0.46 0.46 0.43 0.39 0.36 0.31 0.29 0.23 0.19 0.15 0.12 0.11 0.10 0.09 0.09 0.09 0.09 0.08 0.09 0.10 0.10 0.09 0.09 0.08 0.09 0.09 0.09 0.10 0.10 0.10 0.12 0.14 0.21
0.52 0.48 0.42 0.36 0.30 0.28 0.28 0.29 0.31 0.31 0.31 0.32 0.31 0.28 0.23 0.20 0.17 0.13 0.11 0.09 0.09 0.09 0.09 0.09 0.09 0.08 0.07 0.08 0.09 0.09 0.09 0.09 0.09 0.08 0.08 0.08 0.08 0.09 0.09 0.10 0.11 0.14 0.20
0.73 0.61 0.46 0.34 0.27 0.26 0.26 0.26 0.26 0.26 0.23 0.19 0.17 0.16 0.13 0.11 0.10 0.09 0.09 0.08 0.08 0.09 0.09 0.08 0.07 0.07 0.07 0.08 0.08 0.07 0.06 0.06 0.07 0.07 0.08 0.09 0.10 0.09 0.11 0.14 0.15 0.18 0.22
0.77 0.62 0.50 0.39 0.32 0.28 0.26 0.24 0.20 0.18 0.16 0.13 0.11 0.11 0.10 0.09 0.09 0.09 0.09 0.09 0.09 0.10 0.09 0.08 0.07 0.07 0.07 0.06 0.04 0.04 0.04 0.04 0.05 0.06 0.09 0.10 0.11 0.13 0.18 0.19 0.22 0.27 0.31
0.74 0.70 0.60 0.49 0.37 0.30 0.26 0.22 0.20 0.19 0.16 0.13 0.12 0.11 0.11 0.10 0.11 0.12 0.12 0.12 0.11 0.10 0.09 0.08 0.07 0.06 0.04 0.02 0.01 0.01 0.01 0.03 0.04 0.06 0.09 0.11 0.11 0.16 0.19 0.19 0.24 0.32 0.38
0.94 0.90 0.76 0.62 0.50 0.41 0.36 0.31 0.28 0.23 0.18 0.16 0.17 0.16 0.15 0.16 0.16 0.16 0.15 0.15 0.13 0.11 0.08 0.05 0.04 0.03 0.02 0.01 0.01 0.01 0.01 0.02 0.05 0.09 0.10 0.08 0.07 0.08 0.09 0.14 0.21 0.30 0.39
1.03 0.94 0.82 0.69 0.62 0.56 0.49 0.42 0.36 0.30 0.26 0.25 0.23 0.21 0.19 0.20 0.19 0.16 0.14 0.13 0.10 0.08 0.07 0.05 0.04 0.05 0.03 0.00 0.00 0.00 0.01 0.04 0.09 0.12 0.12 0.09 0.08 0.12 0.17 0.17 0.17 0.25 0.33
1.22 1.10 0.92 0.79 0.68 0.59 0.52 0.45 0.37 0.32 0.29 0.28 0.26 0.23 0.20 0.19 0.16 0.12 0.11 0.09 0.07 0.07 0.06 0.05 0.05 0.07 0.04 0.00 0.00 0.00 0.01 0.06 0.09 0.10 0.12 0.15 0.18 0.16 0.13 0.14 0.22 0.32 0.42
1.17 1.04 0.87 0.76 0.68 0.58 0.49 0.42 0.37 0.33 0.30 0.27 0.22 0.17 0.12 0.11 0.08 0.07 0.06 0.06 0.06 0.06 0.05 0.04 0.05 0.08 0.07 0.01 0.00 0.00 0.02 0.05 0.07 0.09 0.11 0.12 0.17 0.13 0.12 0.19 0.31 0.39 0.52
0.78 0.74 0.70 0.65 0.59 0.49 0.40 0.37 0.34 0.28 0.23 0.16 0.11 0.07 0.05 0.05 0.05 0.05 0.06 0.06 0.07 0.06 0.05 0.05 0.06 0.08 0.09 0.02 0.00 0.01 0.03 0.05 0.06 0.10 0.14 0.13 0.11 0.11 0.15 0.22 0.38 0.54 0.62
0.63 0.61 0.58 0.55 0.49 0.38 0.30 0.27 0.24 0.19 0.12 0.08 0.05 0.03 0.02 0.03 0.03 0.05 0.07 0.08 0.08 0.09 0.08 0.08 0.09 0.09 0.06 0.03 0.00 0.01 0.03 0.05 0.07 0.12 0.18 0.22 0.16 0.16 0.18 0.29 0.47 0.65 0.68
0.59 0.56 0.51 0.44 0.34 0.25 0.22 0.21 0.17 0.10 0.07 0.06 0.05 0.03 0.02 0.02 0.03 0.07 0.10 0.10 0.11 0.11 0.10 0.10 0.09 0.07 0.07 0.05 0.01 0.00 0.01 0.04 0.10 0.22 0.25 0.27 0.25 0.22 0.27 0.40 0.59 0.73 0.87
0.57 0.50 0.40 0.31 0.22 0.16 0.16 0.17 0.13 0.08 0.07 0.08 0.07 0.05 0.04 0.04 0.03 0.07 0.10 0.11 0.11 0.08 0.07 0.07 0.07 0.07 0.09 0.08 0.02 0.01 0.02 0.05 0.12 0.26 0.33 0.33 0.30 0.37 0.55 0.68 0.79 0.91 1.05
0.41 0.32 0.24 0.19 0.13 0.09 0.08 0.09 0.07 0.06 0.07 0.08 0.06 0.06 0.07 0.08 0.08 0.09 0.07 0.08 0.08 0.06 0.06 0.08 0.08 0.10 0.12 0.09 0.05 0.05 0.07 0.10 0.15 0.23 0.38 0.46 0.50 0.63 0.83 0.96 1.05 1.11 1.12
0.23 0.17 0.15 0.12 0.08 0.05 0.04 0.03 0.03 0.04 0.06 0.07 0.06 0.06 0.06 0.08 0.13 0.13 0.06 0.04 0.05 0.02 0.03 0.06 0.08 0.12 0.13 0.08 0.06 0.09 0.11 0.14 0.19 0.23 0.37 0.52 0.59 0.74 0.90 1.01 1.05 1.07 1.06
0.16 0.13 0.10 0.06 0.04 0.03 0.02 0.01 0.01 0.01 0.05 0.08 0.06 0.04 0.04 0.06 0.08 0.13 0.14 0.05 0.01 0.00 0.01 0.03 0.05 0.07 0.09 0.07 0.06 0.08 0.12 0.17 0.23 0.29 0.46 0.59 0.63 0.72 0.82 0.91 0.99 0.97 0.92